Location: Amon Carter Post Office
(32.8281°N, 97.0484°W)
Time: 02:31:31
(UTC+00:00)

Lacrosse 5 rocket - Pass Details

Date: 04 July 2022
Orbit: 456 x 628 km, 57.0° (Epoch: 09 August)

Event Time Altitude Azimuth Distance (km) Brightness Sun altitude
Rises 04:33:39 0° 298° (WNW) 2,647 5.7 -27.5°
Reaches altitude 10° 04:36:39 10° 273° (W) 1,795 4.3 -27.8°
Enters shadow 04:37:38 13° 260° (W) 1,632 3.9 -27.9°
